Home   Weather   Fort Simpson   Past weeks

Flag for Canada Past Weather in Fort Simpson, Northwest Territories, Canada — Yesterday and Last 2 Weeks

Now
-26 °F

Passing clouds.


Feels Like: -40 °F
Forecast: -22 / -5 °F
Wind: 5 mph from South

Location: Fort Simpson

Current Time: Dec 9, 2016 at 10:15:04 pm

Latest Report: Dec 9, 2016 at 9:00 pm


Visibility: 15 mi

Pressure: 30.55 "Hg

Humidity: 75%

Dew Point: -31 °F

Location of Fort SimpsonLocation

Past Weather in Fort Simpson — Graph

°F

Fort Simpson Temperature Yesterday

Maximum temperature yesterday: -15 °F (at 3:00 pm)
Minimum temperature yesterday: -26 °F (at 12:00 am)
Average temperature yesterday: -20 °F

High & Low Weather Summary for the Past Weeks

 TemperatureHumidityPressure
High16 °F (Nov 30, 9:00 pm)92% (Nov 30, 5:00 am)31.00 "Hg (Nov 30, 5:00 am)
Low-27 °F (Dec 9, 8:00 pm)65% (Dec 5, 12:00 am)28.05 "Hg (Dec 7, 2:00 am)
Average-4 °F79%29.87 "Hg
* Reported Nov 24 9:00 pm — Dec 9 9:00 pm, Fort Simpson, Weather by CustomWeather, © 2016

Note: Actual official high and low records may vary slightly from our data, if they occured in-between our weather recording intervals... More about our weather records

Advertising

Fort Simpson Weather History for the Previous 24 Hours

Scroll right to see more
 ConditionsComfort  
Time TempWeatherWind HumidityBarometerVisibility
9:00 pm
Fri, Dec 9
-26 °FPassing clouds.5 mph75%30.55 "Hg15 mi
8:00 pm-27 °FPassing clouds.No wind74%30.60 "Hg15 mi
7:00 pm-26 °FPassing clouds.No wind75%30.62 "Hg15 mi
6:00 pm-22 °FPassing clouds.No wind68%30.65 "Hg15 mi
5:00 pm-20 °FPassing clouds.3 mph68%30.68 "Hg15 mi
4:00 pm-20 °FPassing clouds.2 mph75%30.71 "Hg15 mi
3:00 pm-20 °FPartly sunny.3 mph75%30.74 "Hg15 mi
2:00 pm-20 °FLight snow. Partly sunny.5 mph68%30.76 "Hg15 mi
1:00 pm-22 °FLight snow. Partly sunny.3 mph75%30.78 "Hg15 mi
12:00 pm-22 °FLight snow. Partly sunny.5 mph75%30.81 "Hg15 mi
11:00 am-20 °FLight snow. Broken clouds.6 mph68%30.82 "Hg15 mi
10:00 am-20 °FLight snow. Partly cloudy.7 mph75%30.84 "Hg12 mi
9:00 am-20 °FLight snow. Partly cloudy.7 mph75%30.84 "Hg12 mi
8:00 am-20 °FLight snow. Overcast.6 mph75%30.86 "Hg8 mi
7:00 am-18 °FLight snow. Overcast.7 mph69%30.86 "Hg8 mi
6:00 am-18 °FLight snow. Passing clouds.8 mph69%30.88 "Hg8 mi
5:00 am-20 °FLight snow. Partly cloudy.7 mph75%30.89 "Hg15 mi
4:00 am-18 °FLight snow. Overcast.8 mph69%30.90 "Hg10 mi
3:00 am-20 °FLight snow. Mostly cloudy.8 mph75%30.91 "Hg10 mi
2:00 am-20 °FLight snow. Partly cloudy.7 mph75%30.92 "Hg6 mi
1:00 am-20 °FLight snow. Mostly cloudy.7 mph75%30.93 "Hg4 mi
12:00 am-20 °FLight snow. Partly cloudy.8 mph75%30.93 "Hg15 mi
11:00 pm
Thu, Dec 8
-20 °FLight snow. Partly cloudy.9 mph75%30.93 "Hg15 mi
10:00 pm-18 °FLight snow. Partly cloudy.8 mph75%30.93 "Hg12 mi
Weather by CustomWeather, © 2016

See weather overviewHow to use our weather pages